Simultaneous Nadir Overpasses (SNOs) Predictions

Prediction of SNOs between GOES-17 and AQUA Satellite Orbit:

Table of predicted SNOs for the next 14.0 days since TLE Epoch: 6/14/2024
Index Date Time (GOES-17) GOES-17 Lat,Lon AQUA Lat,Lon Distance(km) Time Diff (sec)
1 06/16/2024 21:08:33 -0.02,-104.71 -0.06,-104.84 15.44 80
2 06/18/2024 20:54:38 0.02,-104.71 0.85,-100.79 445.32 80
3 06/19/2024 09:14:45 -0.02,-104.71 0.17,-105.66 107.92 80
4 06/21/2024 08:55:28 -0.02,-104.70 -0.68,-101.59 353.36 80
5 06/21/2024 21:15:43 0.02,-104.70 -0.36,-106.50 204.85 80
6 06/23/2024 21:01:45 0.02,-104.69 0.48,-102.43 256.72 80
7 06/24/2024 09:21:51 -0.01,-104.69 0.57,-107.29 296.33 80
8 06/26/2024 09:05:13 -0.00,-104.68 -0.31,-103.23 165.86 80
9 06/26/2024 21:22:48 0.00,-104.68 -0.75,-108.12 392.27 80
10 06/28/2024 21:08:49 -0.01,-104.67 0.14,-104.05 70.56 80
